[[[{"header":{"parameterUnit":"kt","parameterCategory":2,"dx":1,"dy":1,"la1":30.253999710083008,"la2":30.299108505249023,"lo1":-89.0895004272461,"lo2":-89.04439544677734,"nx":28,"ny":28,"refTime":"2022-10-01T21:00:00:Z","depth":0,"parameterNumber":1,"parameterNumberName":"U-component_of_WINDS"},"data":[2.3182,2.323,2.3239,2.3299,2.3317,2.3361,2.338,2.3405,2.3428,2.3483,2.3516,2.3531,2.3559,2.3602,2.364,2.3647,2.3663,2.3675,2.3681,2.3618,2.361,2.3603,2.3592,2.3678,2.3678,2.3745,2.3746,2.3746,2.3141,2.3159,2.3192,2.3231,2.326,2.3255,2.3286,2.3312,2.3351,2.3379,2.3411,2.346,2.3501,2.3524,2.3565,2.3591,2.3592,2.3602,2.3601,2.3606,2.3539,2.3527,2.3601,2.3601,2.3601,2.3601,2.3601,2.3601,2.3068,2.3096,2.3124,2.316,2.3182,2.3208,2.3237,2.3253,2.3287,2.3328,2.3332,2.3377,2.3408,2.346,2.348,2.3517,2.3508,2.3522,2.3526,2.353,2.3535,2.3442,2.3524,2.3524,2.3524,2.3524,2.3523,0,2.3019,2.3024,2.3055,2.309,2.3117,2.3145,2.3172,2.319,2.3204,2.3231,2.3271,2.3296,2.3347,2.3387,2.3426,2.3444,2.3443,2.3442,2.3453,2.3453,2.3449,2.3455,2.3348,2.344,2.3439,2.3439,2.3438,2.3438,2.2949,2.2979,2.3011,2.3032,2.3048,2.3082,2.3104,2.3114,2.3137,2.3173,2.3197,2.3237,2.3269,2.3333,2.3353,2.339,2.339,2.3425,2.3396,2.3395,2.3395,2.3394,2.3398,2.3431,2.3432,2.3432,2.3433,0,2.291,2.2922,2.2971,2.2999,2.3007,2.3039,2.3064,2.3092,2.3104,2.3145,2.3155,2.3174,2.3214,2.3227,2.3275,2.3281,2.334,2.3337,2.3331,2.3332,2.3366,2.3364,2.347,2.3486,2.3394,2.3395,2.3395,0,2.2856,2.2895,2.2911,2.2938,2.2983,2.299,2.3034,2.3048,2.3072,2.3104,2.3102,2.3133,2.3144,2.3178,2.3186,2.3236,2.3244,2.3253,2.3255,2.3254,2.3253,2.3268,2.3265,2.3255,2.3254,2.3254,2.3253,0,2.2795,2.2847,2.2891,2.2905,2.2938,2.2959,2.2974,2.3,2.3021,2.3051,2.3065,2.3099,2.3118,2.3146,2.3157,2.3137,2.3216,2.3191,2.3226,2.3226,2.3243,2.3242,2.3332,2.3252,2.3252,2.3252,2.3252,0,2.2753,2.2781,2.2842,2.287,2.2883,2.2912,2.2946,2.2973,2.3,2.3007,2.303,2.303,2.3071,2.3047,2.3105,2.3077,2.3097,2.3107,2.311,2.3116,2.3088,2.314,2.3221,2.3232,2.3121,2.312,2.3119,0,2.2682,2.2746,2.2751,2.2809,2.284,2.2836,2.2869,2.2892,2.2903,2.2933,2.2945,2.2979,2.2962,2.2974,2.3001,2.3017,2.3054,2.3012,2.3059,2.3061,2.3054,2.3129,2.3139,2.3202,2.3105,2.3106,2.3107,0,2.2628,2.2664,2.2674,2.269,2.2719,2.2744,2.2781,2.2814,2.2834,2.2858,2.2891,2.2936,2.2927,2.2946,2.2949,2.2977,2.3029,2.2962,2.2963,2.2976,2.3097,2.3107,2.3118,2.3026,2.3027,2.3029,2.3096,0,2.2568,2.2599,2.2625,2.2658,2.2678,2.2714,2.2724,2.2745,2.2746,2.2756,2.2803,2.2823,2.2857,2.287,2.287,2.2928,2.2921,2.2909,2.2886,2.2934,2.2957,2.2966,2.2852,2.2851,2.285,2.285,0,0,2.2498,2.2542,2.2545,2.2579,2.2597,2.2591,2.2628,2.2645,2.2678,2.2691,2.2678,2.2745,2.2761,2.2817,2.2833,2.2845,2.2858,2.2839,2.291,2.2917,2.2923,2.2948,2.2957,2.2849,2.2849,2.2849,2.2849,0,2.2478,2.2491,2.2527,2.2544,2.2569,2.2577,2.2585,2.2609,2.2617,2.266,2.2655,2.2684,2.2734,2.2754,2.2771,2.2833,2.2828,2.2842,2.2873,2.2905,2.2912,2.2919,2.2944,2.2952,2.2847,2.2847,2.2847,0,2.2428,2.2444,2.2461,2.2498,2.2514,2.2545,2.2524,2.2556,2.2579,2.257,2.2613,2.2626,2.2651,2.27,2.2723,2.2712,2.2801,2.2772,2.2776,2.2779,2.2811,2.2819,2.2827,2.2724,2.2724,2.2723,0,0,2.2409,2.2437,2.2456,2.2494,2.2505,2.2516,2.2533,2.2534,2.2556,2.2565,2.258,2.2603,2.2633,2.2652,2.2681,2.2733,2.274,2.2757,2.2763,2.2767,2.2773,2.2806,2.2814,2.2721,2.2721,2.2721,0,0,2.24,2.2424,2.2419,2.2464,2.2485,2.2507,2.2531,2.2526,2.2552,2.2549,2.2554,2.256,2.2606,2.2617,2.2593,2.2673,2.265,2.2656,2.2664,2.2671,2.2677,2.2674,2.2574,0,0,0,0,0,2.2384,2.2421,2.2417,2.2426,2.2471,2.2509,2.2515,2.2519,2.2504,2.2523,2.2535,2.2527,2.2606,2.2584,2.2593,2.2621,2.2699,2.2703,2.2706,2.2728,2.2736,2.2743,0,0,0,0,0,0,2.2388,2.2398,2.2416,2.2439,2.2449,2.2508,2.2483,2.2485,2.2502,2.2499,2.2525,2.2528,2.2532,2.2579,2.2588,2.2614,2.2571,2.27,2.2704,2.2707,2.2731,2.2737,2.2743,0,0,0,0,0,2.239,2.2399,2.2471,2.2438,2.2447,2.2461,2.2481,2.2483,2.2496,2.2514,2.2516,2.2497,2.2533,2.254,2.2584,2.261,2.2565,2.2568,2.2702,2.2705,2.2708,2.2734,0,0,0,0,0,0,2.2392,2.2401,2.2473,2.2476,2.2424,2.2458,2.2464,2.2481,2.2509,2.2512,2.2486,2.2484,2.2534,2.2539,2.2545,2.2609,2.256,2.2563,2.2565,2.2704,2.2707,2.2709,0,0,0,0,0,0,2.2397,2.2404,2.2474,2.2456,2.2457,2.2455,2.246,2.2497,2.251,2.248,2.2479,2.2485,2.2526,2.2539,2.2543,2.2601,2.2557,2.256,2.2562,2.2563,2.2706,2.2708,0,0,0,0,0,0,2.24,2.2406,2.2455,2.2456,2.2457,2.249,2.2489,2.2536,2.2493,2.2479,2.2489,2.2487,2.2525,2.253,2.2542,2.2598,2.2601,2.2557,2.2559,2.256,2.2561,0,0,0,0,0,0,0,2.2402,2.236,2.2455,2.2456,2.2456,2.2503,2.2504,2.2505,2.2492,2.2491,2.2489,2.2488,2.2539,2.2543,2.2546,2.2596,0,0,2.2556,2.2558,0,0,0,0,0,0,0,0,2.2357,2.2359,2.2455,2.2456,2.2457,2.2503,2.2504,2.2505,2.2492,2.2491,2.249,2.2489,2.254,2.2543,2.2546,0,0,0,0,0,0,0,0,0,0,0,0,0,0,0,2.2455,2.2456,0,2.2504,2.2504,2.2505,2.2492,2.2491,2.249,2.2489,2.2541,2.2543,2.2545,0,0,0,0,0,0,0,0,0,0,0,0,0,0,0,0,0,0,0,0,0,0,0,0,0,0,0,0,0,0,0,0,0,0,0,0,0,0,0,0,0,0,0,0,0,0,0,0,0,0,0,0,0,0,0,0,0,0,0,0,0,0,0,0,0,0,0,0,0]}],[{"header":{"parameterUnit":"kt","parameterCategory":2,"dx":1,"dy":1,"la1":30.253999710083008,"la2":30.299108505249023,"lo1":-89.0895004272461,"lo2":-89.04439544677734,"nx":28,"ny":28,"refTime":"2022-10-01T21:00:00:Z","depth":0,"parameterNumber":2,"parameterNumberName":"V-component_of_WINDS"},"data":[-7.6478,-7.6531,-7.6592,-7.668,-7.6749,-7.6819,-7.6863,-7.6925,-7.699,-7.7079,-7.714,-7.7203,-7.7288,-7.7373,-7.7441,-7.7467,-7.749,-7.7468,-7.7501,-7.7551,-7.7561,-7.7571,-7.7563,-7.7473,-7.7473,-7.7442,-7.7441,-7.7441,-7.6516,-7.6585,-7.6649,-7.6751,-7.6807,-7.6866,-7.6951,-7.6992,-7.7051,-7.713,-7.7193,-7.7274,-7.7345,-7.7438,-7.7515,-7.754,-7.7569,-7.7556,-7.7553,-7.7566,-7.7621,-7.7612,-7.7531,-7.7531,-7.7531,-7.7531,-7.7531,-7.7531,-7.6601,-7.663,-7.6727,-7.6797,-7.6864,-7.6931,-7.6968,-7.7046,-7.7107,-7.7196,-7.7252,-7.7319,-7.7407,-7.7525,-7.7578,-7.7631,-7.7655,-7.7657,-7.7657,-7.7655,-7.7647,-7.7685,-7.7646,-7.7647,-7.7647,-7.7648,-7.7648,0,-7.668,-7.6729,-7.6793,-7.6876,-7.6929,-7.6997,-7.7069,-7.7094,-7.7211,-7.7255,-7.7325,-7.7374,-7.747,-7.754,-7.7623,-7.7677,-7.7736,-7.7749,-7.775,-7.7723,-7.769,-7.7708,-7.7795,-7.7748,-7.7749,-7.775,-7.775,-7.7751,-7.6769,-7.6795,-7.6923,-7.696,-7.7014,-7.7071,-7.7117,-7.7219,-7.7262,-7.7363,-7.7382,-7.7454,-7.7516,-7.7614,-7.7698,-7.7768,-7.7797,-7.7773,-7.7807,-7.7782,-7.7795,-7.7792,-7.7795,-7.7762,-7.7761,-7.776,-7.7759,0,-7.6813,-7.6909,-7.6968,-7.709,-7.7122,-7.7143,-7.7248,-7.7279,-7.7349,-7.7401,-7.7419,-7.7526,-7.759,-7.768,-7.7768,-7.7813,-7.7847,-7.7874,-7.782,-7.7829,-7.7816,-7.7816,-7.776,-7.7758,-7.7853,-7.7852,-7.7852,0,-7.6925,-7.6954,-7.7095,-7.7123,-7.716,-7.7261,-7.7293,-7.7356,-7.7433,-7.7475,-7.7559,-7.7596,-7.7704,-7.7753,-7.7818,-7.7862,-7.7879,-7.7914,-7.793,-7.7906,-7.7901,-7.7925,-7.7928,-7.7967,-7.7967,-7.7967,-7.7968,0,-7.6982,-7.709,-7.7138,-7.7178,-7.7308,-7.7328,-7.7383,-7.7468,-7.751,-7.7579,-7.7607,-7.7678,-7.7716,-7.777,-7.7852,-7.7872,-7.7908,-7.7952,-7.7944,-7.7942,-7.7944,-7.7942,-7.7874,-7.7968,-7.7968,-7.7968,-7.7968,0,-7.7084,-7.7155,-7.7209,-7.7321,-7.7344,-7.7374,-7.7453,-7.75,-7.7583,-7.7627,-7.768,-7.7745,-7.7791,-7.7829,-7.7893,-7.7896,-7.7929,-7.7968,-7.7969,-7.7975,-7.8014,-7.7962,-7.7889,-7.7884,-7.7986,-7.7986,-7.7987,0,-7.7124,-7.7203,-7.729,-7.7338,-7.7386,-7.748,-7.7514,-7.7585,-7.7646,-7.7695,-7.7762,-7.7814,-7.7862,-7.789,-7.7911,-7.7979,-7.7976,-7.7983,-7.8048,-7.8049,-7.8023,-7.7958,-7.7924,-7.7896,-7.799,-7.7989,-7.7989,0,-7.7165,-7.7324,-7.7326,-7.7375,-7.7486,-7.7525,-7.7565,-7.7641,-7.7669,-7.7737,-7.7772,-7.7848,-7.7887,-7.7931,-7.7989,-7.8006,-7.7981,-7.8044,-7.8047,-7.8029,-7.7998,-7.7967,-7.7961,-7.8017,-7.8016,-7.8016,-7.7991,0,-7.7298,-7.7349,-7.7359,-7.7461,-7.7506,-7.754,-7.7636,-7.767,-7.7724,-7.7787,-7.7838,-7.7915,-7.7987,-7.8004,-7.8054,-7.8064,-7.8075,-7.8114,-7.8153,-7.8111,-7.8105,-7.8102,-7.8156,-7.8157,-7.8159,-7.816,0,0,-7.7311,-7.7385,-7.7476,-7.7518,-7.7562,-7.7655,-7.7682,-7.7734,-7.7835,-7.7863,-7.7887,-7.8003,-7.8062,-7.8114,-7.8108,-7.8136,-7.8146,-7.8156,-7.8131,-7.8127,-7.8124,-7.8116,-7.8112,-7.8163,-7.8163,-7.8164,-7.8164,0,-7.7378,-7.7443,-7.747,-7.753,-7.762,-7.7686,-7.7692,-7.7796,-7.7837,-7.7888,-7.796,-7.8001,-7.8088,-7.8143,-7.8181,-7.8154,-7.8203,-7.8169,-7.8123,-7.8142,-7.8136,-7.8132,-7.8122,-7.8118,-7.8168,-7.8167,-7.8167,0,-7.7435,-7.7514,-7.7537,-7.764,-7.7699,-7.7744,-7.7813,-7.7856,-7.7891,-7.7983,-7.8031,-7.8085,-7.8164,-7.82,-7.8219,-7.824,-7.825,-7.8262,-7.8255,-7.8258,-7.828,-7.8273,-7.8267,-7.8347,-7.8347,-7.8347,0,0,-7.748,-7.7527,-7.764,-7.7661,-7.7694,-7.779,-7.7823,-7.7879,-7.795,-7.7978,-7.8047,-7.8112,-7.8165,-7.8196,-7.8249,-7.8275,-7.8299,-7.828,-7.8272,-7.8264,-7.8263,-7.8283,-7.8276,-7.8348,-7.8348,-7.8348,0,0,-7.75,-7.7633,-7.7675,-7.7712,-7.778,-7.7889,-7.7898,-7.795,-7.8008,-7.8014,-7.8106,-7.8127,-7.8162,-7.821,-7.8214,-7.8265,-7.8303,-7.8304,-7.8231,-7.8222,-7.8214,-7.82,-7.8289,0,0,0,0,0,-7.7617,-7.7618,-7.7654,-7.7675,-7.7801,-7.787,-7.7886,-7.7965,-7.7992,-7.7998,-7.8064,-7.8115,-7.8232,-7.8237,-7.8254,-7.8248,-7.8361,-7.8359,-7.8356,-7.827,-7.8259,-7.825,0,0,0,0,0,0,-7.7625,-7.765,-7.7655,-7.7763,-7.7792,-7.787,-7.7934,-7.7955,-7.7994,-7.8003,-7.8101,-7.8118,-7.8183,-7.8234,-7.8248,-7.824,-7.8284,-7.836,-7.8358,-7.8356,-7.8266,-7.8257,-7.825,0,0,0,0,0,-7.7633,-7.7652,-7.7835,-7.7764,-7.7789,-7.7894,-7.7934,-7.7953,-7.7983,-7.8085,-7.8104,-7.8039,-7.8181,-7.8198,-7.8243,-7.8232,-7.8275,-7.828,-7.8359,-7.8357,-7.8356,-7.8262,0,0,0,0,0,0,-7.7638,-7.7669,-7.7842,-7.7853,-7.7769,-7.7892,-7.7914,-7.795,-7.8064,-7.8083,-7.8028,-7.8034,-7.818,-7.8193,-7.8206,-7.8225,-7.8268,-7.8273,-7.8276,-7.8358,-7.8356,-7.8355,0,0,0,0,0,0,-7.7659,-7.7677,-7.7848,-7.785,-7.7862,-7.7888,-7.7908,-7.7956,-7.8064,-7.8001,-7.801,-7.8029,-7.8159,-7.8189,-7.82,-7.8271,-7.8262,-7.8267,-7.827,-7.8272,-7.8357,-7.8356,0,0,0,0,0,0,-7.7668,-7.7684,-7.7848,-7.7857,-7.7867,-7.7992,-7.7932,-7.8056,-7.807,-7.7994,-7.8073,-7.8075,-7.8154,-7.8166,-7.8195,-7.8261,-7.8268,-7.8262,-7.8265,-7.8268,-7.8269,0,0,0,0,0,0,0,-7.7675,-7.7551,-7.778,-7.7862,-7.7871,-7.7951,-7.7954,-7.7957,-7.807,-7.8072,-7.8073,-7.8074,-7.8235,-7.824,-7.8245,-7.8253,0,0,-7.8262,-7.8264,0,0,0,0,0,0,0,0,-7.7546,-7.755,-7.778,-7.7782,-7.7785,-7.7951,-7.7954,-7.7956,-7.8071,-7.8072,-7.8073,-7.8074,-7.8236,-7.824,-7.8245,0,0,0,0,0,0,0,0,0,0,0,0,0,0,0,-7.778,-7.7782,0,-7.7952,-7.7954,-7.7956,-7.8071,-7.8072,-7.8072,-7.8073,-7.8237,-7.8241,-7.8244,0,0,0,0,0,0,0,0,0,0,0,0,0,0,0,0,0,0,0,0,0,0,0,0,0,0,0,0,0,0,0,0,0,0,0,0,0,0,0,0,0,0,0,0,0,0,0,0,0,0,0,0,0,0,0,0,0,0,0,0,0,0,0,0,0,0,0,0,0]}]]]